{"data":{"norad_id":54762,"epoch":"2026-09-20T15:41:32.377344Z","epoch_age_seconds":76335,"freshness":"FRESH","line1":"1 54762U 22175E   26263.65384696  .00001936  00000+0  74098-4 0  9997","line2":"2 54762  53.1589 234.1024 0001423  86.7719 273.3445 15.31715286209559","mean_motion":15.31715286,"eccentricity":0.0001423,"inclination_deg":53.1589,"raan_deg":234.1024,"arg_perigee_deg":86.7719,"mean_anomaly_deg":273.3445,"bstar":7.4098e-5,"rev_number":20955,"period_min":94.012249741301,"perigee_km":469.71984012169,"apogee_km":471.66901754634,"semimajor_km":6848.831428834,"source":"CELESTRAK","updated_at":"2026-09-21T09:00:33.120419Z"}}